When you browse on this site, cookies collect data to enhance your experience and personalize the content and advertising you see.
Visit our Privacy Policy to learn more. By continuing to use the site, you agree to this use of cookies and data.
  • En España
  • Lista de países
  • Para 7 días
  • Temperatura del agua
  • Mapa Satelital
  • El tiempo en el mapa
  • Informadores
  • user-avatar
    Iniciar sesión

    Tiempo cada hora Saurimo

    Hoy, 20 Marzo, Miércoles

    Tiempo Temperatura Precipitaciones Viento Presión Humedad
    00:00 +22°C° 0.3 mm 1 mps 668 mmHg 85%
    01:00 +22°C° 0.3 mm 1 mps 668 mmHg 88%
    02:00 +21°C° 0.5 mm 1 mps 668 mmHg 90%
    03:00 +21°C° 0.5 mm 1 mps 668 mmHg 92%
    04:00 +19°C° 0.5 mm 0 mps 668 mmHg 93%
    05:00 +20°C° 0 mm 0 mps 669 mmHg 92%
    06:00 +20°C° 0 mm 0 mps 669 mmHg 90%
    07:00 +21°C° 0 mm 0 mps 670 mmHg 89%
    08:00 +24°C° 0 mm 0 mps 670 mmHg 77%
    09:00 +27°C° 0 mm 0 mps 671 mmHg 66%
    10:00 +32°C° 0 mm 1 mps 672 mmHg 55%
    11:00 +33°C° 0 mm 1 mps 671 mmHg 50%
    12:00 +33°C° 0 mm 1 mps 670 mmHg 45%
    13:00 +35°C° 0 mm 2 mps 670 mmHg 40%
    14:00 +33°C° 0 mm 1 mps 670 mmHg 45%
    15:00 +32°C° 0 mm 1 mps 669 mmHg 51%
    16:00 +31°C° 0 mm 1 mps 669 mmHg 56%
    17:00 +28°C° 0.6 mm 2 mps 669 mmHg 66%
    18:00 +26°C° 0.6 mm 2 mps 668 mmHg 76%
    19:00 +22°C° 0.6 mm 3 mps 668 mmHg 86%
    20:00 +23°C° 0 mm 2 mps 668 mmHg 89%
    21:00 +21°C° 0 mm 2 mps 669 mmHg 91%
    22:00 +20°C° 0 mm 2 mps 669 mmHg 93%
    23:00 +21°C° 0.4 mm 1 mps 669 mmHg 94%

    Mañana, 21 Marzo, Jueves

    Tiempo Temperatura Precipitaciones Viento Presión Humedad
    00:00 +21°C° 0.4 mm 1 mps 669 mmHg 95%
    01:00 +19°C° 0.4 mm 0 mps 669 mmHg 97%
    02:00 +21°C° 0.5 mm 1 mps 669 mmHg 97%
    03:00 +20°C° 0.5 mm 1 mps 669 mmHg 97%
    04:00 +20°C° 0.5 mm 1 mps 669 mmHg 97%
    05:00 +21°C° 0 mm 1 mps 669 mmHg 95%
    06:00 +21°C° 0 mm 1 mps 670 mmHg 94%
    07:00 +21°C° 0 mm 1 mps 670 mmHg 93%
    08:00 +24°C° 0 mm 1 mps 671 mmHg 83%
    09:00 +26°C° 0 mm 1 mps 671 mmHg 73%
    10:00 +29°C° 0 mm 1 mps 672 mmHg 63%
    11:00 +30°C° 0 mm 1 mps 672 mmHg 57%
    12:00 +32°C° 0 mm 1 mps 671 mmHg 51%
    13:00 +34°C° 0 mm 1 mps 671 mmHg 45%
    14:00 +33°C° 0 mm 1 mps 670 mmHg 49%
    15:00 +31°C° 0 mm 1 mps 670 mmHg 53%
    16:00 +30°C° 0 mm 1 mps 669 mmHg 57%
    17:00 +28°C° 0.8 mm 1 mps 669 mmHg 65%
    18:00 +26°C° 0.8 mm 2 mps 669 mmHg 73%
    19:00 +24°C° 0.8 mm 2 mps 669 mmHg 81%
    20:00 +23°C° 9.9 mm 2 mps 670 mmHg 86%
    21:00 +23°C° 9.9 mm 2 mps 670 mmHg 90%
    22:00 +21°C° 9.9 mm 2 mps 671 mmHg 95%
    23:00 +21°C° 2.8 mm 2 mps 670 mmHg 93%

    Pasado mañana, 22 Marzo, Viernes

    Tiempo Temperatura Precipitaciones Viento Presión Humedad
    00:00 +20°C° 2.8 mm 2 mps 670 mmHg 92%
    01:00 +21°C° 2.8 mm 1 mps 670 mmHg 91%
    02:00 +21°C° 0.1 mm 1 mps 669 mmHg 90%
    03:00 +20°C° 0.1 mm 1 mps 669 mmHg 89%
    04:00 +20°C° 0.1 mm 1 mps 668 mmHg 89%
    05:00 +20°C° 0 mm 1 mps 669 mmHg 89%
    06:00 +20°C° 0 mm 2 mps 669 mmHg 89%
    07:00 +20°C° 0 mm 2 mps 670 mmHg 89%
    08:00 +23°C° 0 mm 2 mps 670 mmHg 81%
    09:00 +25°C° 0 mm 2 mps 671 mmHg 74%
    10:00 +27°C° 0 mm 3 mps 672 mmHg 67%
    11:00 +28°C° 0 mm 3 mps 671 mmHg 65%
    12:00 +29°C° 0 mm 3 mps 671 mmHg 62%
    13:00 +29°C° 0 mm 2 mps 671 mmHg 60%
    14:00 +29°C° 0 mm 2 mps 670 mmHg 62%
    15:00 +29°C° 0 mm 2 mps 670 mmHg 63%
    16:00 +28°C° 0 mm 2 mps 670 mmHg 65%
    17:00 +27°C° 0 mm 1 mps 670 mmHg 69%
    18:00 +25°C° 0 mm 1 mps 670 mmHg 72%
    19:00 +24°C° 0 mm 1 mps 670 mmHg 76%
    20:00 +23°C° 0 mm 1 mps 670 mmHg 77%
    21:00 +22°C° 0 mm 1 mps 670 mmHg 77%
    22:00 +22°C° 0 mm 1 mps 670 mmHg 78%
    23:00 +21°C° 0 mm 1 mps 670 mmHg 78%

    23 Marzo, Sábado

    Tiempo Temperatura Precipitaciones Viento Presión Humedad
    00:00 +21°C° 0 mm 1 mps 669 mmHg 78%
    01:00 +21°C° 0 mm 1 mps 669 mmHg 78%
    02:00 +20°C° 0 mm 1 mps 669 mmHg 78%
    03:00 +20°C° 0 mm 1 mps 668 mmHg 77%
    04:00 +19°C° 0 mm 1 mps 668 mmHg 77%
    05:00 +20°C° 0 mm 1 mps 669 mmHg 77%
    06:00 +20°C° 0 mm 1 mps 670 mmHg 77%
    07:00 +21°C° 0 mm 1 mps 670 mmHg 76%
    08:00 +24°C° 0 mm 1 mps 671 mmHg 69%
    09:00 +27°C° 0 mm 1 mps 672 mmHg 63%
    10:00 +29°C° 0 mm 2 mps 672 mmHg 56%
    11:00 +31°C° 0 mm 1 mps 672 mmHg 52%
    12:00 +32°C° 0 mm 1 mps 671 mmHg 48%
    13:00 +33°C° 0 mm 1 mps 670 mmHg 44%
    14:00 +32°C° 0 mm 1 mps 670 mmHg 46%
    15:00 +32°C° 0 mm 1 mps 669 mmHg 49%
    16:00 +29°C° 0 mm 0 mps 669 mmHg 52%
    17:00 +27°C° 0 mm 0 mps 669 mmHg 56%
    18:00 +25°C° 0 mm 0 mps 669 mmHg 61%
    19:00 +23°C° 0 mm 0 mps 669 mmHg 65%
    20:00 +22°C° 0 mm 0 mps 669 mmHg 67%
    21:00 +22°C° 0 mm 0 mps 669 mmHg 69%
    22:00 +21°C° 0 mm 0 mps 668 mmHg 71%
    23:00 +23°C° 0.1 mm 1 mps 668 mmHg 74%

    24 Marzo, Domingo

    Tiempo Temperatura Precipitaciones Viento Presión Humedad
    00:00 +22°C° 0.1 mm 1 mps 668 mmHg 78%
    01:00 +22°C° 0.1 mm 1 mps 668 mmHg 81%
    02:00 +21°C° 0.5 mm 1 mps 668 mmHg 85%
    03:00 +21°C° 0.5 mm 1 mps 668 mmHg 90%
    04:00 +20°C° 0.5 mm 1 mps 668 mmHg 95%
    05:00 +21°C° 0.3 mm 1 mps 669 mmHg 94%
    06:00 +21°C° 0.3 mm 1 mps 669 mmHg 93%
    07:00 +22°C° 0.3 mm 1 mps 670 mmHg 93%
    08:00 +23°C° 0 mm 0 mps 671 mmHg 82%
    09:00 +26°C° 0 mm 0 mps 671 mmHg 72%
    10:00 +29°C° 0 mm 0 mps 672 mmHg 61%
    11:00 +30°C° 0 mm 0 mps 671 mmHg 57%
    12:00 +31°C° 0 mm 0 mps 670 mmHg 52%
    13:00 +32°C° 0 mm 0 mps 670 mmHg 48%
    14:00 +31°C° 0 mm 0 mps 669 mmHg 52%
    15:00 +30°C° 0 mm 0 mps 669 mmHg 56%
    16:00 +28°C° 0 mm 0 mps 669 mmHg 60%
    17:00 +27°C° 0 mm 0 mps 669 mmHg 64%
    18:00 +25°C° 0 mm 0 mps 668 mmHg 67%
    19:00 +23°C° 0 mm 0 mps 668 mmHg 71%
    20:00 +22°C° 0.2 mm 0 mps 668 mmHg 76%
    21:00 +23°C° 0.2 mm 1 mps 668 mmHg 81%
    22:00 +22°C° 0.2 mm 1 mps 668 mmHg 87%
    23:00 +22°C° 2.1 mm 1 mps 668 mmHg 90%

    25 Marzo, Lunes

    Tiempo Temperatura Precipitaciones Viento Presión Humedad
    00:00 +21°C° 2.1 mm 1 mps 668 mmHg 93%
    01:00 +21°C° 2.1 mm 1 mps 668 mmHg 96%
    02:00 +19°C° 0.1 mm 0 mps 668 mmHg 95%
    03:00 +19°C° 0.1 mm 0 mps 668 mmHg 95%
    04:00 +19°C° 0.1 mm 0 mps 668 mmHg 94%
    05:00 +20°C° 0.8 mm 0 mps 669 mmHg 94%
    06:00 +20°C° 0.8 mm 0 mps 669 mmHg 94%
    07:00 +20°C° 0.8 mm 0 mps 670 mmHg 93%
    08:00 +22°C° 0.9 mm 0 mps 670 mmHg 89%
    09:00 +23°C° 0.9 mm 0 mps 670 mmHg 84%
    10:00 +27°C° 0.9 mm 1 mps 671 mmHg 79%
    11:00 +27°C° 1.6 mm 1 mps 670 mmHg 76%
    12:00 +28°C° 1.6 mm 1 mps 670 mmHg 72%
    13:00 +29°C° 1.6 mm 2 mps 669 mmHg 69%
    14:00 +27°C° 2.7 mm 1 mps 669 mmHg 75%
    15:00 +26°C° 2.7 mm 1 mps 668 mmHg 81%
    16:00 +25°C° 2.7 mm 1 mps 668 mmHg 88%
    17:00 +24°C° 1.4 mm 1 mps 668 mmHg 90%
    18:00 +23°C° 1.4 mm 2 mps 669 mmHg 92%
    19:00 +21°C° 1.4 mm 2 mps 669 mmHg 94%
    20:00 +21°C° 0.3 mm 2 mps 669 mmHg 94%
    21:00 +20°C° 0.3 mm 2 mps 670 mmHg 94%
    22:00 +20°C° 0.3 mm 2 mps 670 mmHg 95%
    23:00 +20°C° 0.1 mm 2 mps 669 mmHg 94%
    Mostrar más